Weather History for EGPF - January, 2013

Change the Weather History Date:

Tuesday, January 15, 2013

  Actual Average Record
Temperature  
Mean Temperature 30 °F -  
Max Temperature 37 °F 44 °F 55 °F (2005)
Min Temperature 24 °F 32 °F 15 °F (2001)
Degree Days  
Heating Degree Days 34    
Moisture  
Dew Point 29 °F    
Average Humidity 92    
Maximum Humidity 100    
Minimum Humidity 81    
Precipitation  
Precipitation 0.00 in - - ()
Sea Level Pressure  
Sea Level Pressure 29.87 in    
Wind  
Wind Speed 4 mph ()    
Max Wind Speed 9 mph    
Max Gust Speed -    
Visibility 6.2 miles    
Events      
Averages and records for this station are not official NWS values.
T = Trace of Precipitation, MM = Missing Value Source: Averaged Metar Reports

Daily Weather History Graph

Daily Weather History Graph

Search for Another Location

Airport or City:

Trip Planner

Search our weather history database for the weather conditions in past years. The results will help you decide how hot, cold, wet, or windy it might be!

Date:

Astronomy

Jan. 15, 2013 Rise Set
Actual Time 8:38 AM GMT 4:16 PM GMT
Civil Twilight 7:53 AM GMT 5:01 PM GMT
Nautical Twilight 7:06 AM GMT 5:48 PM GMT
Astronomical Twilight 6:22 AM GMT 6:32 PM GMT
Moon 9:42 AM GMT (1/15) 9:52 PM GMT (1/15)
Length of Visible Light 9h 07m
Length of Day
7h 38m
Waxing Crescent, 17% of the Moon is Illuminated
Jan 15
Waxing Crescent
Jan 18
First Quarter
Jan 27
Full
Feb 3
Last Quarter
Feb 10
New

Hourly Weather History & Observations

Time (GMT) Temp. Windchill Dew Point Humidity Pressure Visibility Wind Dir Wind Speed Gust Speed Precip Events Conditions
12:20 AM 30.2 °F 24.3 °F 26.6 °F 86% 29.83 in - SW 5.8 mph - N/A   Clear
12:50 AM 30.2 °F 25.4 °F 28.4 °F 93% 29.83 in - West 4.6 mph - N/A   Clear
1:20 AM 28.4 °F - 26.6 °F 93% 29.83 in - Variable 2.3 mph - N/A   Clear
1:50 AM 30.2 °F - 28.4 °F 93% 29.83 in 6.2 mi South 2.3 mph - N/A   Mostly Cloudy
2:20 AM 28.4 °F 24.6 °F 26.6 °F 93% 29.83 in 6.2 mi SSW 3.5 mph - N/A   Scattered Clouds
2:50 AM 30.2 °F - 28.4 °F 93% 29.86 in 6.2 mi SW 2.3 mph - N/A   Scattered Clouds
3:20 AM 30.2 °F - 30.2 °F 100% 29.86 in 6.2 mi ESE 2.3 mph - N/A   Mostly Cloudy
3:50 AM 32.0 °F 28.7 °F 30.2 °F 93% 29.83 in 6.2 mi ESE 3.5 mph - N/A   Overcast
4:20 AM 32.0 °F - 30.2 °F 93% 29.83 in 6.2 mi Calm Calm - N/A   Unknown
4:50 AM 32.0 °F - 30.2 °F 93% 29.83 in 6.2 mi Variable 2.3 mph - N/A   Mostly Cloudy
5:20 AM 30.2 °F - 28.4 °F 93% 29.83 in 6.2 mi Calm Calm - N/A   Mostly Cloudy
5:50 AM 28.4 °F 24.6 °F 28.4 °F 100% 29.86 in 6.2 mi WSW 3.5 mph - N/A   Mostly Cloudy
6:20 AM 30.2 °F - 28.4 °F 93% 29.86 in 6.2 mi Calm Calm - N/A   Mostly Cloudy
6:50 AM 32.0 °F - 30.2 °F 93% 29.86 in 6.2 mi WSW 2.3 mph - N/A   Mostly Cloudy
7:20 AM 30.2 °F 26.7 °F 30.2 °F 100% 29.86 in 6.2 mi Variable 3.5 mph - N/A   Scattered Clouds
7:50 AM 30.2 °F 24.3 °F 28.4 °F 93% 29.86 in 6.2 mi East 5.8 mph - N/A   Scattered Clouds
8:20 AM 32.0 °F - 30.2 °F 93% 29.89 in 6.2 mi Variable 2.3 mph - N/A   Scattered Clouds
8:50 AM 30.2 °F - 28.4 °F 93% 29.89 in 6.2 mi Variable 2.3 mph - N/A   Scattered Clouds
9:20 AM 30.2 °F 23.4 °F 28.4 °F 93% 29.89 in 6.2 mi East 6.9 mph - N/A   Scattered Clouds
9:50 AM 30.2 °F 26.7 °F 30.2 °F 100% 29.89 in 6.2 mi Variable 3.5 mph - N/A   Scattered Clouds
10:20 AM 32.0 °F - 30.2 °F 93% 29.92 in 6.2 mi Calm Calm - N/A   Scattered Clouds
10:50 AM 33.8 °F 27.7 °F 32.0 °F 93% 29.92 in 6.2 mi ENE 6.9 mph - N/A   Scattered Clouds
11:20 AM 35.6 °F 29.9 °F 32.0 °F 87% 29.92 in 6.2 mi ENE 6.9 mph - N/A   Partly Cloudy
11:50 AM 35.6 °F 30.7 °F 32.0 °F 87% 29.92 in 6.2 mi East 5.8 mph - N/A   Partly Cloudy
12:20 PM 35.6 °F 28.6 °F 32.0 °F 87% 29.92 in 6.2 mi East 9.2 mph - N/A   Scattered Clouds
12:50 PM 37.4 °F 32.1 °F 32.0 °F 81% 29.89 in 6.2 mi East 6.9 mph - N/A   Partly Cloudy
1:20 PM 35.6 °F 29.2 °F 32.0 °F 87% 29.89 in 6.2 mi East 8.1 mph - N/A   Scattered Clouds
1:50 PM 35.6 °F 29.9 °F 30.2 °F 81% 29.89 in 6.2 mi East 6.9 mph - N/A   Scattered Clouds
2:20 PM 35.6 °F 29.9 °F 30.2 °F 81% 29.89 in 6.2 mi East 6.9 mph - N/A   Mostly Cloudy
2:50 PM 35.6 °F 30.7 °F 30.2 °F 81% 29.89 in 6.2 mi ENE 5.8 mph - N/A   Mostly Cloudy
3:20 PM 35.6 °F 31.7 °F 32.0 °F 87% 29.89 in 6.2 mi NE 4.6 mph - N/A   Scattered Clouds
3:50 PM 33.8 °F 27.7 °F 32.0 °F 93% 29.89 in 6.2 mi NE 6.9 mph - N/A   Partly Cloudy
4:20 PM 32.0 °F 26.4 °F 30.2 °F 93% 29.89 in 6.2 mi ENE 5.8 mph - N/A   Partly Cloudy
4:50 PM 32.0 °F 24.8 °F 30.2 °F 93% 29.89 in 6.2 mi ENE 8.1 mph - N/A   Partly Cloudy
5:20 PM 32.0 °F 25.6 °F 30.2 °F 93% 29.89 in 6.2 mi ENE 6.9 mph - N/A   Partly Cloudy
5:50 PM 32.0 °F 24.8 °F 30.2 °F 93% 29.89 in 6.2 mi East 8.1 mph - N/A   Partly Cloudy
6:20 PM 30.2 °F 24.3 °F 28.4 °F 93% 29.89 in - ENE 5.8 mph - N/A   Clear
6:50 PM 30.2 °F 25.4 °F 26.6 °F 86% 29.89 in - NE 4.6 mph - N/A   Clear
7:20 PM 28.4 °F 22.2 °F 26.6 °F 93% 29.89 in - ENE 5.8 mph - N/A   Clear
7:50 PM 30.2 °F 26.7 °F 28.4 °F 93% 29.89 in - Variable 3.5 mph - N/A   Clear
8:20 PM 28.4 °F 24.6 °F 26.6 °F 93% 29.89 in - NE 3.5 mph - N/A   Clear
8:50 PM 26.6 °F 19.1 °F 26.6 °F 100% 29.89 in - ENE 6.9 mph - N/A   Clear
9:20 PM 28.4 °F 23.3 °F 26.6 °F 93% 29.89 in 6.2 mi East 4.6 mph - N/A   Unknown
9:50 PM 26.6 °F 20.0 °F 24.8 °F 93% 29.86 in - ENE 5.8 mph - N/A   Clear
10:20 PM 26.6 °F 19.1 °F 24.8 °F 93% 29.86 in - ENE 6.9 mph - N/A   Clear
10:50 PM 24.8 °F 17.9 °F 23.0 °F 93% 29.86 in - ENE 5.8 mph - N/A   Clear
11:20 PM 24.8 °F 16.9 °F 23.0 °F 93% 29.86 in - NE 6.9 mph - N/A   Clear
11:50 PM 26.6 °F 20.0 °F 24.8 °F 93% 29.86 in - ENE 5.8 mph - N/A   Clear